| time (UTC) | temp C | wind direction | speed KPH | gust KPH | rain 1hr cm | rain 24hr cm | rain mn cm | humidity % | barometer mb |
| 20260906131028 | 21 | 0 | 0.0 | 0.0 | 0.00 | 0.71 | 0.00 | 97 | 1014.2 |
| 20260906130529 | 21 | 0 | 0.0 | 3.2 | 0.00 | 0.71 | 0.00 | 97 | 1014.3 |
| 20260906130049 | 21 | 0 | 0.0 | 3.2 | 0.00 | 0.71 | 0.00 | 98 | 1014.3 |
| 20260906125528 | 21 | 0 | 0.0 | 3.2 | 0.00 | 0.71 | 0.00 | 98 | 1014.2 |
| 20260906125028 | 21 | 0 | 0.0 | 3.2 | 0.00 | 0.71 | 0.00 | 98 | 1014.3 |
| 20260906124553 | 21 | 0 | 0.0 | 3.2 | 0.00 | 0.71 | 0.00 | 98 | 1014.3 |
| 20260906124026 | 21 | 0 | 0.0 | 3.2 | 0.00 | 0.71 | 0.00 | 98 | 1014.2 |
| 20260906123527 | 21 | 216 | 0.0 | 3.2 | 0.00 | 0.71 | 0.00 | 98 | 1014.2 |
| 20260906123050 | 21 | 0 | 0.0 | 3.2 | 0.00 | 0.71 | 0.00 | 98 | 1014.2 |
| 20260906122532 | 20 | 0 | 0.0 | 1.6 | 0.00 | 0.71 | 0.00 | 98 | 1014.2 |
| 20260906122029 | 20 | 0 | 0.0 | 3.2 | 0.00 | 0.71 | 0.00 | 98 | 1014.0 |
| 20260906121548 | 20 | 0 | 0.0 | 3.2 | 0.00 | 0.71 | 0.00 | 98 | 1014.0 |
| 20260906121028 | 20 | 216 | 0.0 | 3.2 | 0.00 | 0.71 | 0.00 | 98 | 1014.1 |
| 20260906120528 | 20 | 0 | 0.0 | 0.0 | 0.00 | 0.71 | 0.00 | 98 | 1014.1 |
| 20260906120050 | 20 | 0 | 0.0 | 3.2 | 0.00 | 0.71 | 0.00 | 98 | 1014.0 |
| 20260906115528 | 20 | 0 | 0.0 | 3.2 | 0.00 | 0.71 | 0.00 | 97 | 1013.9 |
| 20260906115028 | 20 | 0 | 0.0 | 3.2 | 0.00 | 0.71 | 0.00 | 97 | 1013.9 |
| 20260906114551 | 20 | 0 | 0.0 | 3.2 | 0.00 | 0.71 | 0.00 | 97 | 1013.8 |
| 20260906114031 | 20 | 0 | 0.0 | 3.2 | 0.00 | 0.71 | 0.00 | 97 | 1013.7 |
| 20260906113525 | 20 | 165 | 0.0 | 0.0 | 0.00 | 0.71 | 0.00 | 97 | 1013.7 |
| 20260906113051 | 20 | 0 | 0.0 | 0.0 | 0.00 | 0.71 | 0.00 | 97 | 1013.7 |
| 20260906112528 | 20 | 0 | 0.0 | 0.0 | 0.00 | 0.71 | 0.00 | 97 | 1013.5 |
| 20260906112029 | 20 | 0 | 0.0 | 0.0 | 0.00 | 0.71 | 0.00 | 97 | 1013.3 |
| 20260906111548 | 21 | 0 | 0.0 | 1.6 | 0.00 | 0.71 | 0.00 | 97 | 1013.4 |
| 20260906111028 | 21 | 0 | 0.0 | 1.6 | 0.00 | 0.71 | 0.00 | 97 | 1013.2 |
| 20260906110530 | 21 | 165 | 0.0 | 1.6 | 0.00 | 0.71 | 0.00 | 97 | 1013.1 |
| 20260906110050 | 21 | 0 | 0.0 | 1.6 | 0.00 | 0.71 | 0.00 | 97 | 1013.1 |
| 20260906105528 | 21 | 0 | 0.0 | 0.0 | 0.00 | 0.71 | 0.00 | 97 | 1013.0 |
| 20260906105027 | 21 | 0 | 0.0 | 0.0 | 0.00 | 0.71 | 0.00 | 97 | 1013.1 |
| 20260906104552 | 21 | 0 | 0.0 | 0.0 | 0.00 | 0.71 | 0.00 | 97 | 1013.0 |
| 20260906104028 | 21 | 0 | 0.0 | 0.0 | 0.00 | 0.71 | 0.00 | 97 | 1013.1 |
| 20260906103528 | 21 | 0 | 0.0 | 1.6 | 0.00 | 0.71 | 0.00 | 97 | 1013.0 |
| 20260906103050 | 21 | 0 | 0.0 | 3.2 | 0.00 | 0.71 | 0.00 | 97 | 1013.0 |
| 20260906102528 | 21 | 0 | 0.0 | 3.2 | 0.00 | 0.71 | 0.00 | 97 | 1013.0 |
| 20260906102027 | 21 | 165 | 1.6 | 3.2 | 0.00 | 0.71 | 0.00 | 97 | 1012.9 |
| 20260906101547 | 21 | 0 | 0.0 | 0.0 | 0.00 | 0.71 | 0.00 | 97 | 1013.0 |
| 20260906101030 | 21 | 0 | 0.0 | 1.6 | 0.00 | 0.71 | 0.00 | 97 | 1013.0 |
| 20260906100526 | 21 | 0 | 0.0 | 1.6 | 0.00 | 0.71 | 0.00 | 97 | 1013.1 |
| 20260906100046 | 21 | 0 | 0.0 | 3.2 | 0.00 | 0.71 | 0.00 | 96 | 1013.2 |
| 20260906095526 | 21 | 0 | 0.0 | 3.2 | 0.00 | 0.71 | 0.00 | 96 | 1013.2 |
| 20260906095027 | 21 | 165 | 1.6 | 6.4 | 0.00 | 0.71 | 0.00 | 96 | 1013.2 |
| 20260906094552 | 21 | 165 | 1.6 | 6.4 | 0.00 | 0.71 | 0.00 | 96 | 1013.2 |
| 20260906094028 | 21 | 0 | 0.0 | 3.2 | 0.00 | 0.71 | 0.00 | 96 | 1013.5 |
| 20260906093528 | 21 | 175 | 1.6 | 3.2 | 0.00 | 0.71 | 0.00 | 96 | 1013.5 |
| 20260906093058 | 21 | 175 | 1.6 | 3.2 | 0.00 | 0.71 | 0.00 | 96 | 1013.5 |
| 20260906092527 | 21 | 151 | 0.0 | 4.8 | 0.00 | 0.71 | 0.00 | 95 | 1013.5 |
| 20260906092030 | 21 | 0 | 0.0 | 4.8 | 0.00 | 0.71 | 0.00 | 95 | 1013.5 |
| 20260906091557 | 21 | 331 | 0.0 | 4.8 | 0.00 | 0.71 | 0.00 | 96 | 1013.4 |
| 20260906091028 | 21 | 286 | 0.0 | 3.2 | 0.00 | 0.71 | 0.00 | 96 | 1013.4 |
| 20260906090527 | 21 | 0 | 0.0 | 3.2 | 0.00 | 0.71 | 0.00 | 96 | 1013.6 |
| 20260906090052 | 21 | 0 | 1.6 | 3.2 | 0.00 | 0.71 | 0.00 | 96 | 1013.6 |
| 20260906085528 | 21 | 340 | 0.0 | 4.8 | 0.00 | 0.71 | 0.00 | 96 | 1013.6 |
| 20260906085028 | 21 | 340 | 0.0 | 4.8 | 0.00 | 0.71 | 0.00 | 95 | 1013.8 |
| 20260906084549 | 21 | 340 | 0.0 | 3.2 | 0.00 | 0.71 | 0.00 | 95 | 1013.8 |
| 20260906084031 | 21 | 340 | 0.0 | 3.2 | 0.00 | 0.71 | 0.00 | 95 | 1013.7 |
| 20260906083530 | 21 | 340 | 0.0 | 3.2 | 0.00 | 0.71 | 0.00 | 95 | 1013.7 |
| 20260906083049 | 21 | 25 | 0.0 | 3.2 | 0.00 | 0.71 | 0.00 | 96 | 1013.8 |
| 20260906082527 | 21 | 0 | 0.0 | 3.2 | 0.00 | 0.71 | 0.00 | 96 | 1013.8 |
| 20260906082029 | 21 | 0 | 0.0 | 4.8 | 0.00 | 0.71 | 0.00 | 95 | 1013.9 |
| 20260906081552 | 21 | 0 | 0.0 | 4.8 | 0.00 | 0.71 | 0.00 | 95 | 1013.7 |
| 20260906081031 | 21 | 38 | 0.0 | 3.2 | 0.00 | 0.71 | 0.00 | 95 | 1013.8 |
| 20260906080530 | 21 | 0 | 0.0 | 4.8 | 0.00 | 0.71 | 0.00 | 95 | 1013.9 |
| 20260906080054 | 21 | 317 | 0.0 | 4.8 | 0.00 | 0.71 | 0.00 | 95 | 1013.8 |
| 20260906075530 | 21 | 331 | 1.6 | 4.8 | 0.00 | 0.71 | 0.00 | 95 | 1013.9 |
| 20260906075028 | 21 | 324 | 0.0 | 4.8 | 0.00 | 0.71 | 0.00 | 95 | 1013.9 |
| 20260906074550 | 21 | 323 | 0.0 | 4.8 | 0.00 | 0.71 | 0.00 | 95 | 1013.9 |
| 20260906074033 | 21 | 327 | 1.6 | 4.8 | 0.00 | 0.71 | 0.00 | 96 | 1013.8 |
| 20260906073527 | 21 | 53 | 1.6 | 4.8 | 0.00 | 0.71 | 0.00 | 95 | 1013.4 |
| 20260906073048 | 21 | 0 | 1.6 | 6.4 | 0.00 | 0.71 | 0.00 | 95 | 1012.7 |
| 20260906072529 | 21 | 221 | 1.6 | 6.4 | 0.00 | 0.71 | 0.00 | 95 | 1012.5 |
| 20260906072030 | 21 | 197 | 3.2 | 6.4 | 0.00 | 0.71 | 0.00 | 96 | 1012.5 |
| 20260906071558 | 21 | 210 | 1.6 | 4.8 | 0.00 | 0.71 | 0.00 | 96 | 1012.8 |
| 20260906071028 | 21 | 222 | 0.0 | 3.2 | 0.00 | 0.71 | 0.00 | 96 | 1013.1 |
| 20260906070532 | 21 | 313 | 0.0 | 3.2 | 0.00 | 0.71 | 0.00 | 96 | 1013.3 |
| 20260906070055 | 21 | 0 | 0.0 | 3.2 | 0.00 | 0.71 | 0.00 | 97 | 1013.5 |
| 20260906065531 | 21 | 313 | 0.0 | 8.0 | 0.00 | 0.71 | 0.00 | 97 | 1013.8 |
| 20260906065026 | 21 | 0 | 1.6 | 8.0 | 0.00 | 0.71 | 0.00 | 98 | 1014.0 |
| 20260906064549 | 21 | 129 | 1.6 | 6.4 | 0.00 | 0.71 | 0.00 | 98 | 1014.0 |
| 20260906064029 | 20 | 275 | 3.2 | 9.7 | 0.00 | 0.71 | 0.00 | 98 | 1014.1 |
| 20260906063527 | 20 | 88 | 0.0 | 9.7 | 0.00 | 0.71 | 0.00 | 98 | 1014.4 |
| 20260906063049 | 21 | 148 | 3.2 | 9.7 | 0.00 | 0.71 | 0.00 | 98 | 1014.7 |
| 20260906062528 | 21 | 78 | 3.2 | 9.7 | 0.00 | 0.71 | 0.00 | 98 | 1014.5 |
| 20260906062028 | 21 | 182 | 3.2 | 9.7 | 0.00 | 0.71 | 0.00 | 98 | 1014.4 |
| 20260906061558 | 21 | 153 | 3.2 | 8.0 | 0.00 | 0.71 | 0.00 | 98 | 1014.4 |
| 20260906061027 | 21 | 12 | 0.0 | 3.2 | 0.00 | 0.71 | 0.00 | 98 | 1014.1 |
| 20260906060528 | 20 | 0 | 0.0 | 3.2 | 0.00 | 0.71 | 0.00 | 98 | 1013.7 |
| 20260906060046 | 21 | 0 | 0.0 | 0.0 | 0.00 | 0.71 | 0.00 | 98 | 1013.6 |
| 20260906055528 | 21 | 0 | 0.0 | 0.0 | 0.00 | 0.71 | 0.00 | 98 | 1013.5 |
| 20260906055027 | 20 | 0 | 0.0 | 0.0 | 0.00 | 0.71 | 0.00 | 98 | 1013.5 |
| 20260906054554 | 20 | 0 | 0.0 | 0.0 | 0.00 | 0.71 | 0.00 | 98 | 1013.5 |
| 20260906054028 | 20 | 0 | 0.0 | 0.0 | 0.00 | 0.71 | 0.00 | 98 | 1013.5 |
| 20260906053528 | 21 | 0 | 0.0 | 1.6 | 0.00 | 0.71 | 0.00 | 98 | 1013.4 |
| 20260906053048 | 21 | 0 | 0.0 | 1.6 | 0.00 | 0.71 | 0.00 | 98 | 1013.4 |
| 20260906052528 | 21 | 0 | 0.0 | 1.6 | 0.00 | 0.71 | 0.00 | 98 | 1013.4 |
| 20260906052029 | 21 | 0 | 0.0 | 0.0 | 0.00 | 0.71 | 0.00 | 97 | 1013.4 |
| 20260906051552 | 21 | 0 | 0.0 | 0.0 | 0.00 | 0.71 | 0.00 | 98 | 1013.5 |
| 20260906051028 | 21 | 0 | 0.0 | 0.0 | 0.00 | 0.71 | 0.00 | 98 | 1013.5 |
| 20260906050532 | 21 | 0 | 0.0 | 0.0 | 0.00 | 0.71 | 0.00 | 97 | 1013.4 |
| 20260906050114 | 21 | 0 | 0.0 | 0.0 | 0.00 | 0.71 | 0.00 | 98 | 1013.5 |
| 20260906045528 | 21 | 0 | 0.0 | 0.0 | 0.00 | 0.71 | 0.71 | 98 | 1013.6 |
| 20260906045029 | 21 | 0 | 0.0 | 0.0 | 0.00 | 0.71 | 0.71 | 97 | 1013.7 |
| 20260906044553 | 21 | 0 | 0.0 | 0.0 | 0.00 | 0.71 | 0.71 | 98 | 1013.8 |
| 20260906044033 | 21 | 0 | 0.0 | 0.0 | 0.00 | 0.71 | 0.71 | 98 | 1013.9 |
| 20260906043528 | 21 | 0 | 0.0 | 0.0 | 0.00 | 0.71 | 0.71 | 97 | 1013.8 |
| 20260906043057 | 21 | 0 | 0.0 | 0.0 | 0.00 | 0.71 | 0.71 | 97 | 1014.0 |
| 20260906042527 | 21 | 0 | 0.0 | 0.0 | 0.00 | 0.71 | 0.71 | 97 | 1014.1 |
| 20260906042025 | 21 | 0 | 0.0 | 0.0 | 0.00 | 0.71 | 0.71 | 97 | 1014.1 |
| 20260906041544 | 21 | 0 | 0.0 | 0.0 | 0.00 | 0.71 | 0.71 | 97 | 1014.1 |
| 20260906041025 | 21 | 0 | 0.0 | 0.0 | 0.00 | 0.71 | 0.71 | 97 | 1014.2 |
| 20260906040527 | 21 | 0 | 0.0 | 0.0 | 0.00 | 0.71 | 0.71 | 97 | 1014.1 |
| 20260906040053 | 21 | 0 | 0.0 | 0.0 | 0.00 | 0.71 | 0.71 | 97 | 1014.1 |
| 20260906035525 | 21 | 0 | 0.0 | 0.0 | 0.00 | 0.71 | 0.71 | 97 | 1014.1 |
| 20260906035024 | 21 | 0 | 0.0 | 0.0 | 0.00 | 0.71 | 0.71 | 97 | 1014.0 |
| 20260906034548 | 21 | 0 | 0.0 | 0.0 | 0.00 | 0.71 | 0.71 | 97 | 1013.9 |
| 20260906034024 | 21 | 0 | 0.0 | 0.0 | 0.00 | 0.71 | 0.71 | 97 | 1013.9 |
| 20260906033527 | 21 | 0 | 0.0 | 0.0 | 0.00 | 0.71 | 0.71 | 97 | 1014.0 |
| 20260906033047 | 21 | 0 | 0.0 | 0.0 | 0.00 | 0.71 | 0.71 | 97 | 1014.1 |
| 20260906032523 | 21 | 0 | 0.0 | 0.0 | 0.00 | 0.71 | 0.71 | 97 | 1014.2 |
| 20260906032024 | 21 | 0 | 0.0 | 0.0 | 0.00 | 0.71 | 0.71 | 97 | 1014.3 |
| 20260906031556 | 21 | 0 | 0.0 | 0.0 | 0.00 | 0.71 | 0.71 | 97 | 1014.2 |
| 20260906031027 | 21 | 0 | 0.0 | 1.6 | 0.00 | 0.71 | 0.71 | 97 | 1014.2 |
| 20260906030532 | 21 | 0 | 0.0 | 3.2 | 0.00 | 0.71 | 0.71 | 97 | 1014.0 |
| 20260906025524 | 21 | 321 | 0.0 | 3.2 | 0.00 | 0.71 | 0.71 | 97 | 1013.8 |
| 20260906025029 | 21 | 0 | 0.0 | 3.2 | 0.00 | 0.71 | 0.71 | 97 | 1013.9 |
| 20260906024551 | 21 | 321 | 0.0 | 1.6 | 0.00 | 0.71 | 0.71 | 96 | 1013.8 |
| 20260906024025 | 21 | 0 | 0.0 | 3.2 | 0.00 | 0.71 | 0.71 | 96 | 1013.7 |
| 20260906023524 | 21 | 0 | 0.0 | 3.2 | 0.00 | 0.71 | 0.71 | 96 | 1013.9 |
| 20260906023103 | 21 | 56 | 1.6 | 3.2 | 0.00 | 0.71 | 0.71 | 96 | 1013.8 |
| 20260906022524 | 21 | 0 | 0.0 | 1.6 | 0.00 | 0.71 | 0.71 | 96 | 1013.7 |
| 20260906022025 | 21 | 0 | 0.0 | 0.0 | 0.00 | 0.71 | 0.71 | 96 | 1013.5 |
| 20260906021555 | 21 | 0 | 0.0 | 0.0 | 0.00 | 0.71 | 0.71 | 96 | 1013.4 |
| 20260906021026 | 21 | 0 | 0.0 | 0.0 | 0.00 | 0.71 | 0.71 | 95 | 1013.2 |
| 20260906020527 | 21 | 0 | 0.0 | 0.0 | 0.00 | 0.71 | 0.71 | 95 | 1013.3 |
| 20260906020059 | 21 | 0 | 0.0 | 0.0 | 0.00 | 0.71 | 0.71 | 95 | 1013.2 |
| 20260906015525 | 21 | 0 | 0.0 | 0.0 | 0.00 | 0.71 | 0.71 | 95 | 1013.4 |
| 20260906015024 | 21 | 0 | 0.0 | 0.0 | 0.00 | 0.71 | 0.71 | 95 | 1013.4 |
| 20260906014604 | 21 | 0 | 0.0 | 1.6 | 0.00 | 0.71 | 0.71 | 94 | 1013.4 |
| 20260906014024 | 22 | 0 | 0.0 | 1.6 | 0.00 | 0.71 | 0.71 | 95 | 1013.3 |
| 20260906013525 | 22 | 0 | 0.0 | 1.6 | 0.00 | 0.71 | 0.71 | 95 | 1013.3 |
| 20260906013047 | 22 | 0 | 0.0 | 3.2 | 0.00 | 0.71 | 0.71 | 95 | 1013.2 |
| 20260906012523 | 22 | 355 | 0.0 | 3.2 | 0.00 | 0.71 | 0.71 | 95 | 1012.9 |
| 20260906012027 | 22 | 0 | 0.0 | 3.2 | 0.00 | 0.71 | 0.71 | 94 | 1012.9 |
| 20260906011544 | 22 | 0 | 0.0 | 3.2 | 0.00 | 0.71 | 0.71 | 94 | 1012.9 |
| 20260906011029 | 22 | 0 | 0.0 | 3.2 | 0.00 | 0.71 | 0.71 | 94 | 1012.9 |
| 20260906010528 | 22 | 0 | 0.0 | 3.2 | 0.00 | 0.71 | 0.71 | 94 | 1013.0 |
| 20260906010047 | 22 | 355 | 0.0 | 0.0 | 0.00 | 0.71 | 0.71 | 94 | 1013.2 |
| 20260906005529 | 22 | 0 | 0.0 | 0.0 | 0.00 | 0.71 | 0.71 | 94 | 1013.2 |
| 20260906005025 | 22 | 0 | 0.0 | 3.2 | 0.00 | 0.71 | 0.71 | 94 | 1013.0 |
| 20260906004543 | 22 | 0 | 0.0 | 3.2 | 0.00 | 0.71 | 0.71 | 94 | 1013.1 |
| 20260906004031 | 22 | 355 | 1.6 | 3.2 | 0.00 | 0.71 | 0.71 | 94 | 1013.1 |
| 20260906003527 | 22 | 0 | 0.0 | 1.6 | 0.00 | 0.71 | 0.71 | 93 | 1012.9 |
| 20260906003057 | 22 | 0 | 0.0 | 3.2 | 0.00 | 0.71 | 0.71 | 93 | 1012.8 |
| 20260906002526 | 22 | 0 | 0.0 | 3.2 | 0.00 | 0.71 | 0.71 | 93 | 1012.8 |
| 20260906002030 | 22 | 355 | 1.6 | 3.2 | 0.00 | 0.71 | 0.71 | 94 | 1012.8 |
| 20260906001547 | 22 | 0 | 0.0 | 3.2 | 0.00 | 0.71 | 0.71 | 93 | 1012.8 |
| 20260906001025 | 22 | 0 | 0.0 | 3.2 | 0.00 | 0.71 | 0.71 | 93 | 1012.8 |
| 20260906000525 | 22 | 28 | 1.6 | 3.2 | 0.00 | 0.71 | 0.71 | 93 | 1012.8 |
| 20260906000044 | 22 | 28 | 0.0 | 3.2 | 0.00 | 0.71 | 0.71 | 93 | 1012.8 |
| 20260905235529 | 22 | 0 | 0.0 | 1.6 | 0.00 | 0.71 | 0.71 | 93 | 1012.8 |
| 20260905235029 | 22 | 28 | 0.0 | 1.6 | 0.00 | 0.71 | 0.71 | 92 | 1012.9 |
| 20260905234555 | 22 | 0 | 0.0 | 1.6 | 0.00 | 0.71 | 0.71 | 91 | 1013.0 |
| 20260905234027 | 22 | 0 | 0.0 | 1.6 | 0.00 | 0.71 | 0.71 | 90 | 1013.0 |
| 20260905233524 | 22 | 0 | 0.0 | 1.6 | 0.00 | 0.71 | 0.71 | 92 | 1013.0 |
| 20260905233048 | 23 | 0 | 0.0 | 1.6 | 0.00 | 0.71 | 0.71 | 93 | 1013.1 |
| 20260905232525 | 23 | 0 | 0.0 | 4.8 | 0.00 | 0.71 | 0.71 | 91 | 1013.1 |
| 20260905232024 | 23 | 336 | 0.0 | 4.8 | 0.00 | 0.71 | 0.71 | 94 | 1013.0 |
| 20260905231548 | 23 | 336 | 1.6 | 4.8 | 0.00 | 0.71 | 0.71 | 94 | 1013.0 |
| 20260905231024 | 23 | 336 | 0.0 | 3.2 | 0.00 | 0.71 | 0.71 | 95 | 1013.1 |
| 20260905230529 | 23 | 0 | 0.0 | 3.2 | 0.00 | 0.71 | 0.71 | 96 | 1012.9 |
| 20260905230057 | 23 | 0 | 0.0 | 3.2 | 0.00 | 0.71 | 0.71 | 95 | 1012.8 |
| 20260905225527 | 23 | 9 | 0.0 | 4.8 | 0.00 | 0.71 | 0.71 | 95 | 1012.6 |
| 20260905225027 | 23 | 0 | 0.0 | 4.8 | 0.00 | 0.71 | 0.71 | 96 | 1012.6 |
| 20260905224549 | 23 | 338 | 0.0 | 4.8 | 0.00 | 0.71 | 0.71 | 95 | 1012.5 |
| 20260905224030 | 23 | 67 | 1.6 | 3.2 | 0.00 | 0.71 | 0.71 | 95 | 1012.4 |
| 20260905223524 | 23 | 0 | 0.0 | 3.2 | 0.00 | 0.71 | 0.71 | 96 | 1012.5 |
| 20260905223051 | 22 | 161 | 0.0 | 3.2 | 0.00 | 0.71 | 0.71 | 95 | 1012.8 |
| 20260905222525 | 22 | 0 | 0.0 | 1.6 | 0.03 | 0.71 | 0.71 | 95 | 1012.7 |
| 20260905222027 | 22 | 0 | 0.0 | 1.6 | 0.03 | 0.71 | 0.71 | 94 | 1012.8 |
| 20260905221547 | 22 | 0 | 0.0 | 3.2 | 0.03 | 0.71 | 0.71 | 95 | 1012.9 |
| 20260905221025 | 22 | 0 | 0.0 | 6.4 | 0.03 | 0.71 | 0.71 | 95 | 1012.8 |
| 20260905220529 | 22 | 0 | 0.0 | 6.4 | 0.03 | 0.71 | 0.71 | 95 | 1012.8 |
| 20260905220055 | 22 | 178 | 1.6 | 4.8 | 0.05 | 0.71 | 0.71 | 95 | 1013.0 |
| 20260905215528 | 22 | 0 | 0.0 | 3.2 | 0.05 | 0.71 | 0.71 | 94 | 1012.9 |
| 20260905215029 | 22 | 0 | 0.0 | 3.2 | 0.05 | 0.71 | 0.71 | 94 | 1012.9 |
| 20260905214602 | 22 | 277 | 0.0 | 4.8 | 0.05 | 0.71 | 0.71 | 94 | 1013.1 |
| 20260905214029 | 22 | 0 | 1.6 | 4.8 | 0.05 | 0.71 | 0.71 | 93 | 1012.8 |
| 20260905213530 | 23 | 277 | 1.6 | 4.8 | 0.05 | 0.71 | 0.71 | 91 | 1012.9 |
| 20260905213048 | 23 | 0 | 0.0 | 3.2 | 0.08 | 0.71 | 0.71 | 92 | 1013.2 |
| 20260905212529 | 23 | 281 | 0.0 | 6.4 | 0.08 | 0.69 | 0.69 | 89 | 1013.5 |
| 20260905212034 | 23 | 0 | 0.0 | 6.4 | 0.13 | 0.69 | 0.69 | 86 | 1013.6 |
| 20260905211556 | 24 | 245 | 1.6 | 17.7 | 0.23 | 0.69 | 0.69 | 85 | 1013.8 |
| 20260905211028 | 24 | 5 | 3.2 | 17.7 | 0.53 | 0.69 | 0.69 | 86 | 1013.9 |
| 20260905210531 | 24 | 340 | 6.4 | 17.7 | 0.69 | 0.69 | 0.69 | 86 | 1014.1 |
| 20260905210049 | 25 | 346 | 3.2 | 9.7 | 0.66 | 0.66 | 0.66 | 93 | 1013.8 |
| 20260905205530 | 25 | 28 | 1.6 | 6.4 | 0.66 | 0.66 | 0.66 | 95 | 1013.6 |
| 20260905205030 | 24 | 329 | 0.0 | 4.8 | 0.66 | 0.66 | 0.66 | 95 | 1013.5 |
| 20260905204558 | 24 | 302 | 1.6 | 9.7 | 0.66 | 0.66 | 0.66 | 94 | 1013.5 |
| 20260905204028 | 24 | 192 | 1.6 | 9.7 | 0.66 | 0.66 | 0.66 | 93 | 1013.5 |
| 20260905203529 | 23 | 343 | 1.6 | 6.4 | 0.66 | 0.66 | 0.66 | 94 | 1013.4 |
| 20260905203050 | 23 | 189 | 3.2 | 6.4 | 0.64 | 0.64 | 0.64 | 92 | 1013.3 |
| 20260905202529 | 25 | 218 | 3.2 | 6.4 | 0.58 | 0.58 | 0.58 | 88 | 1013.6 |
| 20260905202029 | 26 | 300 | 1.6 | 8.0 | 0.56 | 0.56 | 0.56 | 82 | 1013.7 |
| 20260905201548 | 28 | 173 | 3.2 | 8.0 | 0.43 | 0.43 | 0.43 | 75 | 1013.6 |
| 20260905201028 | 30 | 137 | 3.2 | 11.3 | 0.10 | 0.10 | 0.10 | 65 | 1013.7 |
| 20260905200530 | 30 | 228 | 1.6 | 14.5 | 0.00 | 0.00 | 0.00 | 60 | 1013.4 |
| 20260905200052 | 31 | 232 | 4.8 | 24.1 | 0.00 | 0.00 | 0.00 | 57 | 1013.2 |
| 20260905195528 | 31 | 235 | 4.8 | 24.1 | 0.00 | 0.00 | 0.00 | 57 | 1013.2 |
| 20260905195028 | 32 | 215 | 6.4 | 24.1 | 0.00 | 0.00 | 0.00 | 57 | 1012.9 |
| 20260905194557 | 32 | 250 | 6.4 | 16.1 | 0.00 | 0.00 | 0.00 | 59 | 1013.0 |
| 20260905194027 | 32 | 247 | 1.6 | 3.2 | 0.00 | 0.00 | 0.00 | 60 | 1012.9 |
| 20260905193529 | 33 | 0 | 0.0 | 1.6 | 0.00 | 0.00 | 0.00 | 58 | 1013.0 |
| 20260905193047 | 33 | 0 | 0.0 | 1.6 | 0.00 | 0.00 | 0.00 | 55 | 1013.1 |
| 20260905192529 | 33 | 0 | 0.0 | 3.2 | 0.00 | 0.00 | 0.00 | 56 | 1013.1 |
| 20260905192033 | 33 | 0 | 0.0 | 4.8 | 0.00 | 0.00 | 0.00 | 54 | 1013.0 |
| 20260905191548 | 34 | 0 | 1.6 | 6.4 | 0.00 | 0.00 | 0.00 | 52 | 1013.0 |
| 20260905191028 | 34 | 348 | 1.6 | 8.0 | 0.00 | 0.00 | 0.00 | 53 | 1013.1 |
| 20260905190529 | 35 | 350 | 1.6 | 8.0 | 0.00 | 0.00 | 0.00 | 53 | 1013.2 |
| 20260905190053 | 35 | 11 | 1.6 | 6.4 | 0.00 | 0.00 | 0.00 | 52 | 1013.3 |
| 20260905185528 | 35 | 0 | 1.6 | 6.4 | 0.00 | 0.00 | 0.00 | 50 | 1013.3 |
| 20260905185029 | 35 | 0 | 1.6 | 6.4 | 0.00 | 0.00 | 0.00 | 50 | 1013.3 |
| 20260905184607 | 35 | 164 | 1.6 | 6.4 | 0.00 | 0.00 | 0.00 | 52 | 1013.2 |
| 20260905184035 | 35 | 75 | 1.6 | 6.4 | 0.00 | 0.00 | 0.00 | 50 | 1013.2 |
| 20260905183531 | 35 | 24 | 1.6 | 6.4 | 0.00 | 0.00 | 0.00 | 51 | 1013.3 |
| 20260905183101 | 35 | 302 | 1.6 | 6.4 | 0.00 | 0.00 | 0.00 | 51 | 1013.3 |
| 20260905182528 | 35 | 315 | 1.6 | 8.0 | 0.00 | 0.00 | 0.00 | 51 | 1013.4 |
| 20260905182029 | 35 | 5 | 3.2 | 8.0 | 0.00 | 0.00 | 0.00 | 50 | 1013.5 |
| 20260905181555 | 35 | 15 | 1.6 | 6.4 | 0.00 | 0.00 | 0.00 | 51 | 1013.7 |
| 20260905181028 | 35 | 132 | 1.6 | 6.4 | 0.00 | 0.00 | 0.00 | 49 | 1013.7 |
| 20260905180528 | 35 | 342 | 1.6 | 9.7 | 0.00 | 0.00 | 0.00 | 52 | 1013.8 |
| 20260905180054 | 35 | 57 | 1.6 | 9.7 | 0.00 | 0.00 | 0.00 | 50 | 1013.8 |
| 20260905175527 | 35 | 325 | 3.2 | 9.7 | 0.00 | 0.00 | 0.00 | 53 | 1013.9 |
| 20260905175028 | 35 | 275 | 3.2 | 9.7 | 0.00 | 0.00 | 0.00 | 51 | 1013.9 |
| 20260905174554 | 35 | 63 | 1.6 | 6.4 | 0.00 | 0.00 | 0.00 | 54 | 1014.0 |
| 20260905174028 | 35 | 327 | 1.6 | 8.0 | 0.00 | 0.00 | 0.00 | 52 | 1014.0 |
| 20260905173528 | 35 | 323 | 1.6 | 8.0 | 0.00 | 0.00 | 0.00 | 53 | 1014.0 |
| 20260905173108 | 34 | 51 | 1.6 | 9.7 | 0.00 | 0.00 | 0.00 | 57 | 1014.1 |
| 20260905172530 | 34 | 32 | 1.6 | 9.7 | 0.00 | 0.00 | 0.00 | 55 | 1014.2 |
| 20260905172029 | 34 | 78 | 3.2 | 8.0 | 0.00 | 0.00 | 0.00 | 55 | 1014.2 |
| 20260905171555 | 34 | 118 | 1.6 | 9.7 | 0.00 | 0.00 | 0.00 | 55 | 1014.2 |
| 20260905171028 | 34 | 330 | 3.2 | 11.3 | 0.00 | 0.00 | 0.00 | 59 | 1014.3 |
| 20260905170528 | 34 | 41 | 3.2 | 11.3 | 0.00 | 0.00 | 0.00 | 56 | 1014.3 |
| 20260905170053 | 34 | 69 | 1.6 | 8.0 | 0.00 | 0.00 | 0.00 | 60 | 1014.4 |
| 20260905165529 | 33 | 341 | 1.6 | 8.0 | 0.00 | 0.00 | 0.00 | 62 | 1014.5 |
| 20260905165028 | 33 | 65 | 1.6 | 8.0 | 0.00 | 0.00 | 0.00 | 61 | 1014.5 |
| 20260905164548 | 33 | 125 | 3.2 | 6.4 | 0.00 | 0.00 | 0.00 | 60 | 1014.6 |
| 20260905164028 | 33 | 45 | 1.6 | 4.8 | 0.00 | 0.00 | 0.00 | 62 | 1014.7 |
| 20260905163528 | 33 | 168 | 1.6 | 4.8 | 0.00 | 0.00 | 0.00 | 62 | 1014.8 |
| 20260905163052 | 33 | 47 | 1.6 | 6.4 | 0.00 | 0.00 | 0.00 | 67 | 1014.9 |
| 20260905162529 | 33 | 59 | 1.6 | 6.4 | 0.00 | 0.00 | 0.00 | 66 | 1014.9 |
| 20260905162029 | 32 | 198 | 1.6 | 6.4 | 0.00 | 0.00 | 0.00 | 65 | 1015.0 |
| 20260905161544 | 32 | 0 | 0.0 | 4.8 | 0.00 | 0.00 | 0.00 | 66 | 1015.1 |
| 20260905161028 | 32 | 333 | 1.6 | 4.8 | 0.00 | 0.00 | 0.00 | 65 | 1015.1 |
| 20260905160533 | 32 | 345 | 1.6 | 6.4 | 0.00 | 0.00 | 0.00 | 67 | 1015.1 |
| 20260905160057 | 31 | 77 | 0.0 | 6.4 | 0.00 | 0.00 | 0.00 | 69 | 1015.2 |
| 20260905155525 | 31 | 169 | 3.2 | 6.4 | 0.00 | 0.00 | 0.00 | 68 | 1015.2 |
| 20260905155025 | 31 | 76 | 1.6 | 4.8 | 0.00 | 0.00 | 0.00 | 69 | 1015.3 |
| 20260905154550 | 31 | 0 | 0.0 | 4.8 | 0.00 | 0.00 | 0.00 | 69 | 1015.2 |
| 20260905154024 | 31 | 61 | 1.6 | 6.4 | 0.00 | 0.00 | 0.00 | 70 | 1015.3 |
| 20260905153524 | 31 | 0 | 1.6 | 6.4 | 0.00 | 0.00 | 0.00 | 70 | 1015.3 |
| 20260905153046 | 31 | 29 | 1.6 | 6.4 | 0.00 | 0.00 | 0.00 | 71 | 1015.4 |
| 20260905152525 | 30 | 90 | 1.6 | 6.4 | 0.00 | 0.00 | 0.00 | 72 | 1015.5 |
| 20260905152028 | 30 | 96 | 1.6 | 8.0 | 0.00 | 0.00 | 0.00 | 72 | 1015.4 |
| 20260905151549 | 30 | 87 | 3.2 | 8.0 | 0.00 | 0.00 | 0.00 | 74 | 1015.5 |
| 20260905151027 | 30 | 102 | 0.0 | 3.2 | 0.00 | 0.00 | 0.00 | 74 | 1015.6 |
| 20260905150525 | 30 | 0 | 0.0 | 4.8 | 0.00 | 0.00 | 0.00 | 75 | 1015.5 |
| 20260905150049 | 30 | 71 | 0.0 | 4.8 | 0.00 | 0.00 | 0.00 | 73 | 1015.6 |
| 20260905145527 | 29 | 130 | 0.0 | 6.4 | 0.00 | 0.00 | 0.00 | 74 | 1015.5 |
| 20260905145027 | 29 | 0 | 0.0 | 6.4 | 0.00 | 0.00 | 0.00 | 75 | 1015.6 |
| 20260905144550 | 29 | 347 | 0.0 | 3.2 | 0.00 | 0.00 | 0.00 | 76 | 1015.5 |
| 20260905144026 | 28 | 0 | 0.0 | 4.8 | 0.00 | 0.00 | 0.00 | 76 | 1015.6 |
| 20260905143525 | 28 | 32 | 0.0 | 4.8 | 0.00 | 0.00 | 0.00 | 78 | 1015.6 |
| 20260905143049 | 28 | 0 | 0.0 | 4.8 | 0.00 | 0.00 | 0.00 | 79 | 1015.5 |
| 20260905142528 | 28 | 225 | 0.0 | 3.2 | 0.00 | 0.00 | 0.00 | 79 | 1015.7 |
| 20260905142029 | 27 | 0 | 0.0 | 4.8 | 0.00 | 0.00 | 0.00 | 79 | 1015.7 |
| 20260905141603 | 27 | 0 | 0.0 | 4.8 | 0.00 | 0.00 | 0.00 | 80 | 1015.8 |
| 20260905141027 | 26 | 0 | 1.6 | 4.8 | 0.00 | 0.00 | 0.00 | 81 | 1015.8 |
| 20260905140527 | 26 | 317 | 1.6 | 6.4 | 0.00 | 0.00 | 0.00 | 83 | 1015.8 |
| 20260905135528 | 25 | 54 | 1.6 | 6.4 | 0.00 | 0.00 | 0.00 | 86 | 1016.0 |
| 20260905135026 | 25 | 0 | 1.6 | 4.8 | 0.00 | 0.00 | 0.00 | 87 | 1016.0 |
| 20260905134605 | 24 | 44 | 0.0 | 4.8 | 0.00 | 0.00 | 0.00 | 89 | 1016.0 |
| 20260905134027 | 24 | 0 | 1.6 | 4.8 | 0.00 | 0.00 | 0.00 | 88 | 1016.0 |
| 20260905133527 | 23 | 43 | 0.0 | 3.2 | 0.00 | 0.00 | 0.00 | 90 | 1016.0 |
| 20260905133055 | 23 | 0 | 0.0 | 3.2 | 0.00 | 0.00 | 0.00 | 91 | 1016.1 |
| 20260905132528 | 23 | 0 | 0.0 | 3.2 | 0.00 | 0.00 | 0.00 | 92 | 1016.0 |
| 20260905132025 | 23 | 47 | 0.0 | 0.0 | 0.00 | 0.00 | 0.00 | 93 | 1016.2 |
| 20260905131555 | 23 | 0 | 0.0 | 1.6 | 0.00 | 0.00 | 0.00 | 93 | 1016.2 |